Regional Weather Roundup
Issued by NWS

Home | Current Version | Previous Version | Text Only | Print | Product List | Glossary Off
Versions: 1 2 3 4 5 6 7 8 9 10 11 12 13 14 15 16 17 18 19 20 21 22 23 24 25 26 27 28 29 30 31 32 33 34 35 36 37 38 39 40 41 42 43 44 45 46 47 48 49 50

000
ASUS44 KMEG 240100
RWRTN
TENNESSEE HOURLY STATE WEATHER ROUNDUP
NATIONAL WEATHER SERVICE MEMPHIS TN
800 PM CDT FRI JUN 23 2017

TNZ002-004-019-021-049-052-054-088>092-240200-
WEST TENNESSEE

CITY           SKY/WX    TMP DP  RH WIND       PRES   REMARKS
MEMPHIS INTL   LGT RAIN  74  72  93 E10       29.83F
NWS MEMPHIS      N/A     72 N/A N/A MISG        N/A
JACKSON        CLOUDY    75  70  84 W9        29.86R
$$

TNZ008-025-027-028-033-062-065-066-240200-
NORTH MIDDLE TENNESSEE

CITY           SKY/WX    TMP DP  RH WIND       PRES   REMARKS
NASHVILLE      MOCLDY    79  74  84 SW7       29.82R
CLARKSVILLE    PTCLDY    79  73  82 W8        29.81R
SMYRNA         PTCLDY    78  74  87 SW6       29.83R
CROSSVILLE     CLOUDY    71  69  93 W10G17    29.89R
$$

TNZ061-075-076-078-094-096-097-240200-
SOUTH MIDDLE TENNESSEE

CITY           SKY/WX    TMP DP  RH WIND       PRES   REMARKS
$$

TNZ017-018-042-046-047-240200-
NORTHEAST TENNESSEE

CITY           SKY/WX    TMP DP  RH WIND       PRES   REMARKS
TRI CITIES     CLOUDY    83  63  50 S14G25    29.76F
$$

TNZ012-013-036-069-073-074-240200-
CENTRAL EAST TENNESSEE

CITY           SKY/WX    TMP DP  RH WIND       PRES   REMARKS
KNOXVILLE      RAIN      73  70  90 SW28G36   29.82R FOG
OAK RIDGE      HVY RAIN  74  71  91 S10G18    29.83R VSB 1
GATLINBURG     MOCLDY    77  68  73 SW13      29.81R
$$

TNZ083-085-099-240200-
SOUTHEAST TENNESSEE

CITY           SKY/WX    TMP DP  RH WIND       PRES   REMARKS
CHATTANOOGA    MOCLDY    75  72  90 SW8       29.89R
$$

SKY/WX REPORTED AS FAIR MEANS FEW OR NO CLOUDS BELOW
12 THOUSAND FEET.




USA.gov is the U.S. government's official web portal to all federal, state and local government web resources and services.